Location: Unspecified
(47.6579°N, 23.5637°E)
Time: 03:20:24
(UTC+02:00)

Envisat - Pass Details

Date: 30 November 2021
Orbit: 764 x 766 km, 98.2° (Epoch: 17 January)

Event Time Altitude Azimuth Distance (km) Brightness Sun altitude
Rises 17:58:26 0° 215° (SW) 3,222 7.1 -13.3°
Reaches altitude 10° 18:01:46 10° 238° (WSW) 2,302 6.8 -13.8°
Maximum altitude 18:04:37 15° 272° (W) 1,983 6.2 -14.3°
Drops below altitude 10° 18:07:28 10° 307° (NW) 2,312 6.0 -14.7°
Sets 18:10:51 0° 330° (NNW) 3,244 6.4 -15.3°
